User: anonymous   Login
Location: Unspecified
(50.1700°N, 6.8600°E)
Time: 16:05:51
(UTC+00:00)
Language:

Cosmos 371 Rocket - Orbit

View from above orbital plane
View from above orbital plane
View from above satellite
View from above satellite

Ground track
Ground track

The orbit data is extracted from the following two-line orbital elements,

1  4579U 70083B   19079.63486855 -.00000004 +00000-0 +55063-5 0  9993
2  4579 074.0018 304.5531 0010294 164.5699 195.5783 14.60443906568345
Epoch (UTC): 20 March 2019 15:14:12
Eccentricity: 0.0010294
inclination: 74.0018°
perigee height: 684 km
apogee height: 699 km
right ascension of ascending node: 304.5531°
argument of perigee: 164.5699°
revolutions per day: 14.60443906
mean anomaly at epoch: 195.5783°
orbit number at epoch: 56834

The dashed part of the orbit path shows where the satellite is in the earth's shadow,  

DLR